Location: Hurlach
(48.1197°N, 10.8140°E)
Time: 01:36:25
(UTC+00:00)

Daily predictions for brighter satellites

Satellite Brightness Start Highest point End
(mag) Time Altitude Azimuth Time Altitude Azimuth Time Altitude Azimuth
CENTAUR R/B 4.5 02:05:13 25° N 02:05:13 25° N 02:10:53 10° NE
ACS3 Solar Sail 3.5 02:00:29 10° NNE 02:03:45 28° NE 02:03:45 28° NE
USA 234 4.3 02:07:23 10° ESE 02:11:31 41° E 02:11:31 41° E
Cosmos 2360 Rocket 4.1 02:17:23 24° NE 02:17:23 24° NE 02:19:38 10° NE
Cosmos 2322 Rocket 4.2 02:17:43 23° NE 02:17:43 23° NE 02:19:50 10° NNE
SL-16 R/B 4.3 02:24:11 20° NNE 02:24:11 20° NNE 02:25:48 10° NNE
Cosmos 1943 Rocket 4.4 02:24:44 17° NNE 02:26:08 19° NE 02:29:56 10° E
ADEOS Rocket 3.6 02:33:22 10° NNE 02:38:45 61° NE 02:38:45 61° NE
CZ-2C R/B 4.1 02:37:42 10° NE 02:42:07 30° E 02:42:20 30° E
Cosmos 2219 Rocket 2.9 02:55:06 49° NE 02:55:06 49° NE 02:59:23 10° NNE
BREEZE-M DEB (TANK) 4.4 02:53:28 72° W 02:54:24 79° SSW 03:19:58 10° SE
USA 59 Rocket 2.8 03:05:02 11° ENE 03:05:02 11° ENE 03:05:11 10° ENE
COSMOS 2428 4.4 02:59:23 12° SSE 03:03:42 30° ESE 03:08:33 10° NE
Cosmos 1727 Rocket 4.4 03:10:25 10° S 03:16:27 60° E 03:22:35 10° NNE
USA 267 3.1 03:13:04 10° NE 03:19:37 85° NNW 03:20:18 74° WSW
Cosmos 2228 Rocket 3.9 03:26:01 45° NE 03:26:01 45° NE 03:29:21 10° NNE
Cosmos 1269 Rocket 4.3 03:29:01 40° N 03:30:48 65° ENE 03:36:03 10° SSE
H-2A R/B 3.9 03:26:51 10° N 03:28:05 17° N 03:28:05 17° N
USA 238 DEB 4.4 03:33:04 34° NNW 03:33:05 34° NNW 03:39:23 10° NE
USA 238 4.4 03:33:09 35° NNW 03:33:10 35° NNW 03:39:30 10° NE
Cosmos 2278 Rocket 3.2 03:29:49 18° N 03:33:43 44° NE 03:39:05 10° SE
Cosmos 2173 Rocket 4.1 03:31:40 10° N 03:37:46 71° E 03:43:49 10° SSE
Cosmos 2333 Rocket 3.4 03:39:31 28° NNW 03:39:31 28° NNW 03:43:06 10° NNE
Cosmos 2237 Rocket 4.4 03:35:34 10° SSE 03:40:02 25° ESE 03:44:31 10° NE
ADEOS II 4.3 03:39:28 10° N 03:39:55 12° NNW 03:39:55 12° NNW
COSMOS 2455 3.4 03:45:06 39° NNW 03:45:06 39° NNW 03:50:20 10° NNE
Lacrosse 5 rocket 3.1 03:46:58 18° NNE 03:46:58 18° NNE 03:48:15 10° NE
Cosmos 2298 Rocket 4.3 03:46:57 51° NNW 03:46:57 51° NNW 03:51:30 10° NNE
Cosmos 1153 Rocket 4.3 03:40:09 10° NNW 03:46:15 65° W 03:52:24 10° S
Cosmos 1939 Rocket 3.3 03:43:35 10° NNE 03:47:24 57° E 03:48:49 34° SSE
ACS3 Solar Sail 2.3 03:43:27 10° N 03:47:53 38° NW 03:47:53 38° NW
BlueWalker 3 2.5 03:53:51 48° SE 03:53:51 48° SE 03:56:33 10° SE
USA 234 3.4 03:50:35 10° SSE 03:56:58 54° SW 03:58:52 41° W
CENTAUR R/B 4.4 03:52:19 16° NNW 03:57:30 32° NNE 04:05:13 10° E
Cosmos 2123 Rocket 4.3 03:51:50 10° S 03:57:58 66° E 04:04:07 10° NNE
Cosmos 2360 Rocket 3.2 03:59:09 30° NNW 03:59:09 30° NNW 04:03:24 10° NNE
USA 276 4.4 04:00:15 17° SE 04:00:15 17° SE 04:01:03 10° SE
Cosmos 2322 Rocket 3.3 03:59:32 27° NNW 03:59:32 27° NNW 04:03:32 10° NNE
Helios 1A Rocket 3.8 03:56:55 10° SE 04:00:06 39° ENE 04:02:41 14° N
Meteor 2-5 Rocket 4.4 03:54:48 10° S 04:00:36 59° E 04:06:21 10° NNE
Gbstr 26 Del rocket 3.6 03:59:16 42° SW 04:00:52 67° SSE 04:06:42 10° ENE
SL-16 R/B 3.8 04:06:02 18° NNW 04:06:02 18° NNW 04:09:03 10° N
Cosmos 44 Rocket 3.3 04:05:02 45° NW 04:06:33 72° WSW 04:11:41 10° SSE
Cosmos 2016 Rocket 4.2 04:02:38 10° N 04:09:03 74° E 04:15:24 10° SSE
Cosmos 1943 Rocket 2.2 04:06:17 16° NNW 04:10:46 80° ENE 04:16:17 10° SSE
Meteor 2-14 Rocket 4.4 04:05:48 10° SSW 04:11:48 60° WNW 04:17:51 10° N
Okean 1-7 3.8 04:13:10 34° NNW 04:13:10 34° NNW 04:15:57 10° N
H-2A R/B 4.0 04:08:41 10° N 04:11:15 36° NNW 04:11:15 36° NNW
ARGOS 3.5 04:09:46 10° N 04:14:52 43° WNW 04:16:17 35° WSW
NOSS 2-1 (C) 2.6 04:14:57 82° NW 04:14:57 82° NW 04:18:01 10° NE
Meteor 2-21 Rocket 4.5 04:09:37 10° S 04:15:44 84° E 04:21:52 10° N
PAYLOAD A 4.2 04:10:29 10° N 04:15:46 55° WNW 04:20:29 12° SW
Cosmos 1908 Rocket 3.4 04:12:13 10° NNW 04:16:40 80° W 04:21:05 10° S
Cosmos 1140 Rocket 3.4 04:15:56 26° NW 04:18:45 59° WSW 04:23:45 10° S
NOSS 2-1 (D) 2.7 04:19:05 68° NW 04:19:05 68° NW 04:22:02 10° NE
CZ-2C R/B 2.8 04:15:34 10° N 04:20:14 41° WNW 04:21:32 34° WSW
Timation 2 Rocket 4.0 04:14:48 13° NNW 04:20:45 72° WSW 04:27:06 10° SSE
Cosmos 1300 Rocket 3.9 04:17:07 10° N 04:21:26 66° ENE 04:25:43 10° SSE
ADEOS Rocket 4.1 04:19:43 10° N 04:24:56 27° WNW 04:25:40 26° WNW
Cosmos 2061 Rocket 4.3 04:22:53 10° N 04:29:05 69° ENE 04:35:15 10° SSE
NOSS 3-1 (C) 3.0 04:27:25 28° WSW 04:29:58 63° NW 04:35:46 10° NE
Iridium 4 Rocket 2.9 04:27:31 10° N 04:31:55 83° W 04:36:04 10° S
Cosmos 2100 Rocket 4.2 04:26:29 10° NNW 04:32:18 46° W 04:38:07 10° SSW
SJ 16-02 3.1 04:29:01 10° N 04:32:50 30° ENE 04:36:36 10° ESE
Orbus 7S? 4.3 04:29:27 10° SW 04:35:42 53° SE 04:38:54 10° ENE
Cosmos 2219 Rocket 3.2 04:36:50 24° WNW 04:38:09 27° NW 04:42:57 10° NNE
IRS-1D 3.3 04:35:25 10° NNE 04:40:24 76° WNW 04:45:19 10° SSW
NOSS 0 Rocket 3.8 04:38:00 10° SSW 04:44:09 82° WNW 04:50:20 10° NNE
COSMOS 2428 2.9 04:42:08 10° SW 04:47:39 51° NW 04:53:14 10° NNE
Cosmos 1869 4.2 04:44:29 10° N 04:47:51 43° ENE 04:51:11 10° SSE
USA 59 Rocket 0.1 04:50:47 27° WNW 04:51:22 30° NW 04:54:03 10° NNE
Cosmos 371 Rocket 4.5 04:46:57 10° NNW 04:51:35 43° ENE 04:56:11 10° SE
Cosmos 1459 Rocket 4.5 04:47:40 10° NNW 04:53:25 37° W 04:59:07 10° SSW
Cosmos 2322 4.1 04:50:01 11° WSW 04:55:14 40° NW 05:00:35 10° NNE
FengYun 1-2 T 4.5 04:51:32 10° N 04:56:50 47° WNW 05:02:09 10° SW
Cosmos 1954 Rocket 4.5 04:51:41 10° NNW 04:56:52 63° ENE 05:01:59 10° SE
COSMO-SKYMED 1 2.5 04:54:14 10° S 04:58:17 58° W 05:02:23 10° NNW
SKYMED 2 3.9 04:55:32 10° S 04:59:39 42° W 05:03:48 10° NNW
Cosmos 407 Rocket 3.6 04:55:44 10° NNW 05:00:40 49° WSW 05:05:33 10° S
USA 267 3.7 04:56:08 10° ENE 05:02:17 46° NNW 05:07:39 14° W
Cosmos 1484 Rocket 2.8 04:59:28 10° NNE 05:03:02 73° ESE 05:06:34 10° S
Cosmos 1725 Rocket 4.3 04:58:01 10° NNW 05:03:57 44° W 05:09:52 10° SSW
Cosmos 1980 3.6 05:01:42 10° SW 05:07:20 73° WNW 05:13:01 10° NNE
Cosmos 1656 Rocket 4.1 05:08:16 10° NNW 05:13:56 66° ENE 05:19:35 10° SE
NOSS 3-1 (A) 3.0 05:09:21 10° SW 05:14:05 68° NW 05:19:56 10° NE
Cosmos 2233 Rocket 4.2 05:09:09 10° NNW 05:15:15 52° W 05:21:17 10° SSW
Cosmos 1400 Rocket 4.4 05:11:49 10° N 05:15:17 34° ENE 05:18:41 10° SE
Cosmos 2278 Rocket 2.8 05:12:35 10° NW 05:17:40 35° WSW 05:22:42 10° S
Cosmos 1703 Rocket 4.5 05:14:09 10° SW 05:17:49 26° WNW 05:21:32 10° NNW
Cosmos 2251 Rocket 3.6 05:14:16 10° NNW 05:19:34 62° WSW 05:24:50 10° S
Cosmos 304 Rocket 4.0 05:15:11 10° NNW 05:19:58 76° ENE 05:24:43 10° SSE
Cosmos 1939 Rocket 4.4 05:18:44 10° NNW 05:20:56 15° WNW 05:23:08 10° W
NOSS 2-1 (E) 4.0 05:18:52 12° W 05:21:15 23° NW 05:23:49 10° NNE
CZ-3 R/B 4.0 05:18:49 10° SW 05:22:33 13° SSW 05:25:15 10° SSE
Lacrosse 5 rocket 2.8 05:20:45 10° NW 05:23:12 18° N 05:25:36 10° NE
Cosmos 2237 Rocket 2.2 05:18:03 10° SW 05:23:39 60° WNW 05:29:16 10° NNE
Cosmos 2333 Rocket 4.2 05:23:18 10° NNW 05:24:11 10° NNW 05:25:05 10° NNW
IGS 5A 3.4 05:21:59 10° NNE 05:26:01 85° E 05:30:02 10° SSW
Cosmos 2292 Rocket 4.5 05:24:25 10° SW 05:28:21 32° WNW 05:33:16 10° N
BlueWalker 3 3.8 05:27:58 10° W 05:29:59 14° SW 05:32:01 10° SSW
Cosmos 2151 Rocket 4.2 05:27:43 10° N 05:32:12 62° ENE 05:36:38 10° SSE
Helios 1A Rocket 4.2 05:30:58 10° SW 05:32:59 15° W 05:35:01 10° NW
Cosmos 2242 Rocket 3.5 05:29:45 10° SSW 05:34:06 71° W 05:38:31 10° N
ATLAS 3B R/B 4.4 05:27:28 10° S 05:34:26 44° ESE 05:41:45 10° NE
Cosmos 2369 Rocket 3.0 05:30:10 10° NNW 05:35:45 54° ENE 05:41:20 10° SE
Cosmos 1624 Rocket 4.0 05:34:41 10° SSW 05:39:52 88° WNW 05:45:05 10° NNE
Cosmos 968 Rocket 4.2 05:37:03 10° NNW 05:42:14 58° ENE 05:47:24 10° SE
